Flag for U.S.A. Weather past 2 weeks in Winston-Salem, North Carolina, U.S.A.

Now
76 °F

Clear.


Feels Like: 77 °F
Forecast: 71 / 87 °F
Wind: 6 mph from South

Location: Smith Reynolds Airport

Current Time: Aug 31, 2014 at 1:33:41 AM

Latest Report: Aug 31, 2014 at 12:54 AM


Visibility: 10 mi

Pressure: 30.14 "Hg

Humidity: 80%

Dew point: 69 °F

Location of Winston-SalemLocation

Historic Weather in Winston-Salem — Graph

°F

Winston-Salem temperature yesterday

Maximum temperature yesterday: 88 °F (at 1:54 PM)
Minimum temperature yesterday: 71 °F (at 6:54 AM)
Average temperature yesterday: 79 °F

Past Weeks' High & Low Weather Summary

 TemperatureHumidityPressure
High91 °F (Aug 28, 4:54 PM)96% (Aug 20, 8:54 AM)30.22 "Hg (Aug 20, 8:54 AM)
Low60 °F (Aug 27, 5:54 AM)36% (Aug 27, 3:54 PM)29.79 "Hg (Aug 19, 3:54 AM)
Average76 °F70%30.02 "Hg
* Reported Aug 15 11:54 PM — Aug 30 11:54 PM, Winston-Salem, Weather by CustomWeather, © 2014

Note: Actual official high and low records may vary slightly from our data, if they occured in-between our weather recording intervals... More about our weather records

Advertising

Winston-Salem weather history for previous 24 hours

 ConditionsComfort  
Time TempWeatherWind HumidityBarometerVisibility
11:54 PM
Aug 30
77 °FClear.6 mph77%30.14 "Hg10 mi
10:54 PM76 °FClear.3 mph77%30.14 "Hg10 mi
9:54 PM77 °FClear.No wind74%30.13 "Hg10 mi
8:54 PM80 °FClear.3 mph67%30.12 "Hg10 mi
7:54 PM81 °FPassing clouds.No wind65%30.11 "Hg10 mi
6:54 PM85 °FSunny.No wind53%30.10 "Hg10 mi
5:54 PM86 °FPartly sunny.7 mph49%30.10 "Hg10 mi
4:54 PM87 °FBroken clouds.6 mph46%30.11 "Hg10 mi
3:54 PM87 °FPartly sunny.6 mph48%30.12 "Hg10 mi
2:54 PM86 °FPartly sunny.6 mph49%30.14 "Hg10 mi
1:54 PM88 °FScattered clouds.3 mph45%30.16 "Hg10 mi
12:54 PM86 °FScattered clouds.N/A51%30.18 "Hg10 mi
11:54 AM83 °FBroken clouds.3 mph61%30.20 "Hg10 mi
10:54 AM81 °FScattered clouds.No wind67%30.20 "Hg10 mi
9:54 AM78 °FPartly sunny.No wind76%30.21 "Hg8 mi
8:54 AM75 °FLow clouds.3 mph85%30.22 "Hg6 mi
7:54 AM73 °FFog.3 mph90%30.20 "Hg4 mi
6:54 AM71 °FFog.No wind90%30.20 "Hg5 mi
5:54 AM73 °FMostly cloudy.No wind90%30.19 "Hg7 mi
4:54 AM74 °FMostly cloudy.No wind88%30.17 "Hg7 mi
3:54 AM74 °FOvercast.No wind88%30.17 "Hg8 mi
2:54 AM74 °FLow clouds.3 mph88%30.17 "Hg8 mi
1:54 AM74 °FMostly cloudy.No wind88%30.17 "Hg8 mi
Weather by CustomWeather, © 2014

See weather overviewHow to use our weather pages